• In Latvia
  • List of Countries
  • For 7 days
  • Water Temperature
  • Satellite Maps
  • Weather Map
  • Weather Widgets
  • user-avatar
    Login

    Hourly Weather Aluksne

    Today, 17 October, Tuesday

    Time Temperature Precipitation Wind Pressure Humidity
    00:00 +8°C° 0 mm 4 mps 742 mmHg 93%
    01:00 +8°C° 0 mm 3 mps 743 mmHg 93%
    02:00 +8°C° 0 mm 3 mps 743 mmHg 94%
    03:00 +7°C° 0 mm 3 mps 743 mmHg 93%
    04:00 +7°C° 0 mm 3 mps 744 mmHg 93%
    05:00 +6°C° 0 mm 2 mps 744 mmHg 92%
    06:00 +6°C° 0 mm 2 mps 744 mmHg 91%
    07:00 +6°C° 0 mm 2 mps 744 mmHg 89%
    08:00 +6°C° 0 mm 2 mps 745 mmHg 88%
    09:00 +8°C° 0 mm 2 mps 745 mmHg 83%
    10:00 +9°C° 0 mm 2 mps 745 mmHg 78%
    11:00 +12°C° 0 mm 2 mps 745 mmHg 74%
    12:00 +12°C° 0.2 mm 2 mps 744 mmHg 77%
    13:00 +11°C° 0.2 mm 3 mps 744 mmHg 80%
    14:00 +12°C° 0.2 mm 3 mps 743 mmHg 83%
    15:00 +12°C° 0.1 mm 3 mps 743 mmHg 85%
    16:00 +12°C° 0.1 mm 4 mps 742 mmHg 87%
    17:00 +12°C° 0.1 mm 4 mps 741 mmHg 89%
    18:00 +12°C° 0 mm 4 mps 741 mmHg 89%
    19:00 +12°C° 0 mm 5 mps 740 mmHg 89%
    20:00 +13°C° 0 mm 5 mps 739 mmHg 89%
    21:00 +13°C° 0 mm 5 mps 739 mmHg 88%
    22:00 +13°C° 0 mm 5 mps 738 mmHg 87%
    23:00 +13°C° 0 mm 5 mps 738 mmHg 86%

    Tomorrow, 18 October, Wednesday

    Time Temperature Precipitation Wind Pressure Humidity
    00:00 +12°C° 0.1 mm 5 mps 738 mmHg 85%
    01:00 +12°C° 0.1 mm 5 mps 738 mmHg 84%
    02:00 +10°C° 0.1 mm 5 mps 738 mmHg 83%
    03:00 +10°C° 0.1 mm 5 mps 737 mmHg 82%
    04:00 +10°C° 0.1 mm 5 mps 737 mmHg 82%
    05:00 +10°C° 0.1 mm 5 mps 737 mmHg 81%
    06:00 +9°C° 0.1 mm 5 mps 736 mmHg 81%
    07:00 +9°C° 0.1 mm 5 mps 736 mmHg 81%
    08:00 +9°C° 0.1 mm 5 mps 736 mmHg 80%
    09:00 +9°C° 0 mm 6 mps 736 mmHg 80%
    10:00 +10°C° 0 mm 6 mps 737 mmHg 79%
    11:00 +10°C° 0 mm 6 mps 737 mmHg 78%
    12:00 +10°C° 0.1 mm 6 mps 737 mmHg 80%
    13:00 +10°C° 0.1 mm 5 mps 738 mmHg 81%
    14:00 +10°C° 0.1 mm 5 mps 738 mmHg 82%
    15:00 +10°C° 0.1 mm 4 mps 738 mmHg 83%
    16:00 +10°C° 0.1 mm 4 mps 739 mmHg 84%
    17:00 +9°C° 0.1 mm 3 mps 739 mmHg 85%
    18:00 +8°C° 0 mm 3 mps 739 mmHg 88%
    19:00 +7°C° 0 mm 2 mps 740 mmHg 90%
    20:00 +6°C° 0 mm 2 mps 740 mmHg 93%
    21:00 +5°C° 0 mm 2 mps 740 mmHg 93%
    22:00 +5°C° 0 mm 2 mps 741 mmHg 94%
    23:00 +4°C° 0 mm 2 mps 741 mmHg 94%

    Day after tomorrow, 19 October, Thursday

    Time Temperature Precipitation Wind Pressure Humidity
    00:00 +4°C° 0 mm 2 mps 741 mmHg 94%
    01:00 +4°C° 0 mm 2 mps 741 mmHg 95%
    02:00 +3°C° 0 mm 2 mps 741 mmHg 95%
    03:00 +3°C° 0 mm 2 mps 741 mmHg 96%
    04:00 +3°C° 0 mm 2 mps 741 mmHg 96%
    05:00 +3°C° 0 mm 2 mps 742 mmHg 96%
    06:00 +3°C° 0 mm 2 mps 742 mmHg 95%
    07:00 +3°C° 0 mm 2 mps 742 mmHg 95%
    08:00 +3°C° 0 mm 2 mps 742 mmHg 94%
    09:00 +5°C° 0 mm 2 mps 742 mmHg 88%
    10:00 +7°C° 0 mm 3 mps 743 mmHg 82%
    11:00 +8°C° 0 mm 3 mps 743 mmHg 76%
    12:00 +9°C° 0 mm 3 mps 743 mmHg 73%
    13:00 +9°C° 0 mm 3 mps 743 mmHg 71%
    14:00 +10°C° 0 mm 3 mps 743 mmHg 68%
    15:00 +8°C° 0 mm 3 mps 743 mmHg 73%
    16:00 +7°C° 0 mm 2 mps 743 mmHg 78%
    17:00 +6°C° 0 mm 2 mps 744 mmHg 84%
    18:00 +5°C° 0 mm 2 mps 744 mmHg 87%
    19:00 +5°C° 0 mm 2 mps 744 mmHg 90%
    20:00 +4°C° 0 mm 2 mps 744 mmHg 93%
    21:00 +4°C° 0 mm 2 mps 745 mmHg 94%
    22:00 +3°C° 0 mm 2 mps 745 mmHg 94%
    23:00 +4°C° 0 mm 1 mps 745 mmHg 95%

    20 October, Friday

    Time Temperature Precipitation Wind Pressure Humidity
    00:00 +4°C° 0 mm 1 mps 746 mmHg 95%
    01:00 +4°C° 0 mm 1 mps 746 mmHg 95%
    02:00 +3°C° 0 mm 1 mps 746 mmHg 96%
    03:00 +3°C° 0 mm 1 mps 746 mmHg 96%
    04:00 +3°C° 0 mm 1 mps 746 mmHg 96%
    05:00 +3°C° 0 mm 1 mps 746 mmHg 96%
    06:00 +3°C° 0 mm 1 mps 747 mmHg 96%
    07:00 +3°C° 0 mm 1 mps 747 mmHg 96%
    08:00 +2°C° 0 mm 0 mps 747 mmHg 96%
    09:00 +3°C° 0 mm 0 mps 747 mmHg 89%
    10:00 +5°C° 0 mm 0 mps 748 mmHg 83%
    11:00 +7°C° 0 mm 0 mps 748 mmHg 76%
    12:00 +7°C° 0 mm 0 mps 748 mmHg 73%
    13:00 +8°C° 0 mm 0 mps 748 mmHg 70%
    14:00 +8°C° 0 mm 0 mps 748 mmHg 67%
    15:00 +7°C° 0 mm 0 mps 748 mmHg 73%
    16:00 +7°C° 0 mm 1 mps 747 mmHg 78%
    17:00 +5°C° 0 mm 1 mps 747 mmHg 83%
    18:00 +5°C° 0 mm 1 mps 747 mmHg 85%
    19:00 +5°C° 0 mm 1 mps 747 mmHg 86%
    20:00 +4°C° 0 mm 2 mps 747 mmHg 88%
    21:00 +4°C° 0 mm 2 mps 747 mmHg 87%
    22:00 +4°C° 0 mm 2 mps 747 mmHg 86%
    23:00 +4°C° 0 mm 2 mps 747 mmHg 85%

    21 October, Saturday

    Time Temperature Precipitation Wind Pressure Humidity
    00:00 +3°C° 0.2 mm 3 mps 746 mmHg 85%
    01:00 +3°C° 0.2 mm 3 mps 746 mmHg 85%
    02:00 +3°C° 0.2 mm 3 mps 745 mmHg 86%
    03:00 +3°C° 0.6 mm 3 mps 744 mmHg 87%
    04:00 +3°C° 0.6 mm 4 mps 744 mmHg 88%
    05:00 +3°C° 0.6 mm 4 mps 743 mmHg 90%
    06:00 +3°C° 1.7 mm 4 mps 742 mmHg 90%
    07:00 +2°C° 1.7 mm 5 mps 742 mmHg 90%
    08:00 +2°C° 1.7 mm 5 mps 741 mmHg 90%
    09:00 +2°C° 1.5 mm 5 mps 741 mmHg 90%
    10:00 +2°C° 1.5 mm 5 mps 740 mmHg 90%
    11:00 +2°C° 1.5 mm 5 mps 740 mmHg 91%
    12:00 +2°C° 0.9 mm 5 mps 740 mmHg 91%
    13:00 +2°C° 0.9 mm 5 mps 740 mmHg 91%
    14:00 +2°C° 0.9 mm 5 mps 739 mmHg 91%
    15:00 +2°C° 0.5 mm 5 mps 740 mmHg 90%
    16:00 +2°C° 0.5 mm 5 mps 740 mmHg 90%
    17:00 +2°C° 0.5 mm 5 mps 740 mmHg 90%
    18:00 +1°C° 0.2 mm 5 mps 740 mmHg 90%
    19:00 +1°C° 0.2 mm 4 mps 741 mmHg 89%
    20:00 +1°C° 0.2 mm 4 mps 741 mmHg 89%
    21:00 +1°C° 0.1 mm 4 mps 742 mmHg 89%
    22:00 +1°C° 0.1 mm 4 mps 742 mmHg 88%
    23:00 +1°C° 0.1 mm 4 mps 743 mmHg 88%

    22 October, Sunday

    Time Temperature Precipitation Wind Pressure Humidity
    00:00 0°C° 0 mm 4 mps 743 mmHg 89%
    01:00 0°C° 0 mm 4 mps 743 mmHg 89%
    02:00 +1°C° 0 mm 3 mps 744 mmHg 90%
    03:00 0°C° 0 mm 3 mps 744 mmHg 90%
    04:00 0°C° 0 mm 3 mps 744 mmHg 91%
    05:00 -1°C° 0 mm 3 mps 744 mmHg 91%
    06:00 -1°C° 0 mm 3 mps 744 mmHg 91%
    07:00 -2°C° 0 mm 3 mps 745 mmHg 90%
    08:00 -2°C° 0 mm 3 mps 745 mmHg 89%
    09:00 -1°C° 0 mm 3 mps 745 mmHg 84%
    10:00 0°C° 0 mm 3 mps 745 mmHg 78%
    11:00 +1°C° 0 mm 3 mps 745 mmHg 73%
    12:00 +2°C° 0 mm 3 mps 745 mmHg 71%
    13:00 +2°C° 0 mm 3 mps 745 mmHg 69%
    14:00 +3°C° 0 mm 3 mps 745 mmHg 67%
    15:00 +2°C° 0 mm 3 mps 744 mmHg 71%
    16:00 +2°C° 0 mm 2 mps 744 mmHg 76%
    17:00 +1°C° 0 mm 2 mps 744 mmHg 81%
    18:00 0°C° 0 mm 3 mps 744 mmHg 80%
    19:00 -1°C° 0 mm 3 mps 744 mmHg 80%
    20:00 -1°C° 0 mm 3 mps 744 mmHg 80%
    21:00 -1°C° 0 mm 3 mps 743 mmHg 80%
    22:00 -1°C° 0 mm 3 mps 743 mmHg 80%
    23:00 -1°C° 0 mm 3 mps 743 mmHg 80%
    Show more